DW0805 Weather Reports


time (UTC)temp
C
wind
direction
speed
KPH
gust
KPH
rain 1hr
cm
rain 24hr
cm
rain mn
cm
humidity
%
barometer
mb
20260902132514 15 237 9.7 16.1 0.23 0.33 0.23 92 1013.9
20260902131514 15 237 9.7 20.9 0.23 0.33 0.23 91 1014.0
20260902125515 16 315 27.4 45.1 0.13 0.23 0.13 84 1013.9
20260902124514 18 254 19.3 25.7 0.00 0.10 0.00 84 1013.7
20260902122514 19 233 16.1 27.4 0.00 0.10 0.00 80 1013.7
20260902120515 20 247 17.7 32.2 0.00 0.10 0.00 78 1013.8
20260902115515 19 228 16.1 37.0 0.00 0.10 0.00 77 1013.9
20260902114515 19 280 16.1 33.8 0.00 0.10 0.00 76 1013.8
20260902113514 20 244 19.3 33.8 0.00 0.10 0.00 76 1013.9
20260902111515 20 229 17.7 35.4 0.00 0.10 0.00 74 1013.9
20260902105514 20 236 20.9 33.8 0.00 0.10 0.00 76 1014.0
20260902104514 20 241 22.5 32.2 0.00 0.10 0.00 76 1014.0
20260902094515 19 248 20.9 33.8 0.00 0.10 0.00 78 1014.0
20260902091514 18 252 16.1 27.4 0.00 0.10 0.00 82 1014.1
20260902085514 18 313 16.1 27.4 0.00 0.10 0.00 83 1014.1
20260902084514 18 231 19.3 25.7 0.00 0.10 0.00 83 1014.1
20260902083514 18 307 12.9 20.9 0.00 0.10 0.00 86 1014.2
20260902081515 17 295 9.7 25.7 0.00 0.10 0.00 87 1014.1
20260902080515 17 236 20.9 27.4 0.00 0.10 0.00 87 1014.2
20260902075514 17 235 14.5 25.7 0.00 0.10 0.00 88 1014.1
20260902070515 17 223 14.5 25.7 0.00 0.10 0.00 90 1013.8
20260902065514 16 233 16.1 24.1 0.00 0.10 0.00 90 1013.9
20260902064516 16 234 14.5 24.1 0.00 0.10 0.00 90 1013.9
20260902063514 16 244 17.7 27.4 0.00 0.10 0.00 91 1013.9
20260902060515 16 228 14.5 24.1 0.00 0.10 0.00 91 1013.9
20260902051515 15 251 11.3 20.9 0.00 0.10 0.00 92 1013.9
20260902041515 15 230 11.3 22.5 0.00 0.10 0.00 92 1013.8
20260902034514 15 234 9.7 14.5 0.00 0.10 0.00 92 1013.9
20260902033514 15 217 9.7 19.3 0.00 0.10 0.00 92 1014.0
20260902032514 15 218 8.0 14.5 0.00 0.10 0.00 92 1014.0
20260902031514 15 232 8.0 16.1 0.00 0.10 0.00 92 1014.0
20260902024515 14 225 9.7 12.9 0.00 0.10 0.00 92 1014.1
20260902023514 13 219 6.4 12.9 0.00 0.10 0.00 92 1014.1
20260902020515 13 224 8.0 12.9 0.00 0.10 0.00 91 1014.0
20260902014515 13 220 3.2 9.7 0.00 0.10 0.00 91 1014.0
20260902013514 13 228 6.4 11.3 0.00 0.10 0.00 90 1014.0
20260902010514 14 257 4.8 11.3 0.00 0.10 0.00 88 1014.1
20260902005514 14 260 9.7 14.5 0.00 0.10 0.00 88 1014.2
20260902003514 14 253 9.7 24.1 0.00 0.10 0.00 87 1014.1
20260902001515 15 257 12.9 19.3 0.00 0.10 0.00 88 1014.2
20260901235515 14 269 11.3 19.3 0.00 0.10 0.00 88 1014.2
20260901234515 14 310 14.5 20.9 0.00 0.10 0.00 88 1014.2
20260901233514 14 284 9.7 25.7 0.00 0.10 0.00 88 1014.3
20260901231515 15 276 14.5 24.1 0.00 0.10 0.00 89 1014.2
20260901225516 15 271 19.3 27.4 0.00 0.10 0.00 91 1014.0
20260901222514 15 264 14.5 25.7 0.00 0.10 0.00 91 1013.8
20260901221509 15 248 14.5 24.1 0.00 0.10 0.00 91 1013.8
20260901220514 16 260 11.3 22.5 0.00 0.10 0.00 90 1013.8
20260901215515 15 274 6.4 11.3 0.00 0.00 0.00 88 1013.9
20260901213515 15 282 4.8 11.3 0.00 0.00 0.00 88 1013.8
20260901210514 15 272 3.2 4.8 0.00 0.00 0.00 87 1013.5
20260901203515 15 292 4.8 8.0 0.00 0.03 0.00 85 1013.5
20260901201514 16 286 3.2 9.7 0.00 0.03 0.00 84 1013.5
20260901200514 16 287 6.4 14.5 0.00 0.03 0.00 84 1013.4
20260901193514 16 291 4.8 14.5 0.00 0.03 0.00 82 1013.2
20260901184516 17 278 11.3 19.3 0.00 0.03 0.00 86 1012.7
20260901183514 17 232 14.5 20.9 0.00 0.03 0.00 86 1012.6
20260901182515 17 253 12.9 22.5 0.00 0.03 0.00 86 1012.6
20260901180514 17 274 11.3 24.1 0.00 0.03 0.00 86 1012.5
20260901175514 17 244 8.0 19.3 0.00 0.03 0.00 85 1012.4
20260901174514 17 246 11.3 20.9 0.00 0.03 0.00 84 1012.2
20260901173515 18 262 9.7 24.1 0.00 0.03 0.00 84 1012.2
20260901165515 18 226 11.3 19.3 0.00 0.03 0.00 81 1012.0
20260901164516 18 253 14.5 22.5 0.00 0.03 0.00 80 1011.9
20260901162515 20 268 9.7 19.3 0.00 0.03 0.00 77 1011.9
20260901160514 20 278 16.1 22.5 0.00 0.03 0.00 80 1011.8
20260901155515 19 304 12.9 22.5 0.00 0.03 0.00 82 1011.7
20260901151514 20 316 20.9 27.4 0.00 0.05 0.00 79 1011.6
20260901143516 21 272 14.5 24.1 0.00 0.10 0.00 76 1011.5
20260901135514 21 253 17.7 24.1 0.00 0.10 0.00 74 1011.6
20260901134515 21 241 12.9 24.1 0.00 0.10 0.00 74 1011.6
20260901133515 21 322 11.3 16.1 0.00 0.10 0.00 74 1011.6